| time (UTC) | temp F | wind direction | speed knots | gust knots | rain 1hr in | rain 24hr in | rain mn in | humidity % | barometer mb |
| 20260505071503 | 53 | 360 | 3.5 | 11.3 | 0.32 | 0.32 | 0.32 | 91 | 1007.4 |
| 20260505071203 | 54 | 35 | 2.6 | 7.0 | 0.31 | 0.31 | 0.31 | 91 | 1007.9 |
| 20260505070903 | 54 | 39 | 2.6 | 7.0 | 0.29 | 0.29 | 0.29 | 90 | 1008.4 |
| 20260505070603 | 54 | 336 | 2.6 | 9.6 | 0.26 | 0.26 | 0.26 | 89 | 1008.9 |
| 20260505070519 | 54 | 337 | 3.5 | 12.2 | 0.23 | 0.23 | 0.24 | 89 | 1009.0 |
| 20260505070004 | 56 | 341 | 7.0 | 22.6 | 0.14 | 0.14 | 0.14 | 86 | 1008.6 |
| 20260505065703 | 57 | 343 | 7.8 | 22.6 | 0.07 | 0.07 | 0.07 | 82 | 1008.1 |
| 20260505065403 | 58 | 344 | 7.8 | 22.6 | 0.03 | 0.03 | 0.03 | 78 | 1007.5 |
| 20260505065317 | 59 | 345 | 7.8 | 22.6 | 0.02 | 0.02 | 0.02 | 77 | 1007.5 |
| 20260505064803 | 62 | 348 | 7.8 | 17.4 | 0.00 | 0.00 | 0.00 | 69 | 1006.8 |
| 20260505064717 | 62 | 348 | 7.8 | 17.4 | 0.00 | 0.00 | 0.00 | 67 | 1006.7 |
| 20260505064203 | 65 | 343 | 7.8 | 20.9 | 0.00 | 0.00 | 0.00 | 60 | 1006.3 |
| 20260505064117 | 65 | 341 | 7.0 | 20.9 | 0.00 | 0.00 | 0.00 | 59 | 1006.1 |
| 20260505063603 | 68 | 327 | 4.3 | 20.9 | 0.00 | 0.00 | 0.00 | 56 | 1005.3 |
| 20260505063303 | 68 | 294 | 2.6 | 12.2 | 0.00 | 0.00 | 0.00 | 68 | 1004.9 |
| 20260505063003 | 68 | 226 | 1.7 | 7.8 | 0.00 | 0.00 | 0.00 | 73 | 1004.8 |
| 20260505062703 | 68 | 217 | 2.6 | 7.8 | 0.00 | 0.00 | 0.00 | 73 | 1004.8 |
| 20260505062403 | 68 | 213 | 2.6 | 7.8 | 0.00 | 0.00 | 0.00 | 73 | 1004.7 |
| 20260505062103 | 68 | 211 | 2.6 | 7.8 | 0.00 | 0.00 | 0.00 | 73 | 1004.6 |
| 20260505062017 | 68 | 210 | 1.7 | 6.1 | 0.00 | 0.00 | 0.00 | 72 | 1004.6 |
| 20260505061503 | 69 | 197 | 0.9 | 4.3 | 0.00 | 0.00 | 0.00 | 72 | 1004.5 |
| 20260505061203 | 69 | 192 | 0.9 | 3.5 | 0.00 | 0.00 | 0.00 | 72 | 1004.4 |
| 20260505060903 | 69 | 196 | 0.9 | 3.5 | 0.00 | 0.00 | 0.00 | 71 | 1004.1 |
| 20260505060603 | 69 | 194 | 0.9 | 3.5 | 0.00 | 0.00 | 0.00 | 72 | 1003.9 |
| 20260505060303 | 69 | 186 | 0.9 | 4.3 | 0.00 | 0.00 | 0.00 | 71 | 1003.8 |
| 20260505060003 | 69 | 159 | 0.9 | 7.0 | 0.00 | 0.00 | 0.00 | 71 | 1003.8 |
| 20260505055703 | 69 | 159 | 0.9 | 7.0 | 0.00 | 0.00 | 0.00 | 71 | 1003.8 |
| 20260505055403 | 69 | 148 | 0.9 | 7.0 | 0.00 | 0.00 | 0.00 | 71 | 1003.7 |
| 20260505055317 | 69 | 156 | 0.9 | 7.0 | 0.00 | 0.00 | 0.00 | 71 | 1003.7 |
| 20260505054803 | 69 | 174 | 0.9 | 5.2 | 0.00 | 0.00 | 0.00 | 71 | 1003.6 |
| 20260505054504 | 69 | 178 | 0.9 | 5.2 | 0.00 | 0.00 | 0.00 | 71 | 1003.7 |
| 20260505054203 | 69 | 175 | 0.9 | 3.5 | 0.00 | 0.00 | 0.00 | 71 | 1003.8 |
| 20260505053903 | 69 | 183 | 0.9 | 7.0 | 0.00 | 0.00 | 0.00 | 71 | 1003.8 |
| 20260505053603 | 69 | 177 | 0.9 | 7.0 | 0.00 | 0.00 | 0.00 | 71 | 1003.8 |
| 20260505053303 | 69 | 182 | 1.7 | 7.0 | 0.00 | 0.00 | 0.00 | 71 | 1003.8 |
| 20260505053003 | 69 | 178 | 1.7 | 7.0 | 0.00 | 0.00 | 0.00 | 71 | 1003.7 |
| 20260505052917 | 69 | 177 | 1.7 | 5.2 | 0.00 | 0.00 | 0.00 | 71 | 1003.7 |
| 20260505052403 | 69 | 180 | 1.7 | 7.8 | 0.00 | 0.00 | 0.00 | 71 | 1003.6 |
| 20260505052317 | 69 | 179 | 1.7 | 7.8 | 0.00 | 0.00 | 0.00 | 71 | 1003.6 |
| 20260505051803 | 69 | 192 | 0.9 | 7.8 | 0.00 | 0.00 | 0.00 | 71 | 1003.6 |
| 20260505051719 | 69 | 188 | 0.9 | 7.8 | 0.00 | 0.00 | 0.00 | 71 | 1003.5 |
| 20260505051203 | 69 | 167 | 0.9 | 4.3 | 0.00 | 0.00 | 0.00 | 71 | 1003.3 |
| 20260505051118 | 69 | 166 | 1.7 | 4.3 | 0.00 | 0.00 | 0.00 | 71 | 1003.2 |
| 20260505050603 | 69 | 156 | 1.7 | 5.2 | 0.00 | 0.00 | 0.00 | 71 | 1003.2 |
| 20260505050303 | 69 | 152 | 1.7 | 5.2 | 0.00 | 0.00 | 0.00 | 71 | 1003.2 |
| 20260505041503 | 70 | 164 | 0.9 | 3.5 | 0.00 | 0.00 | 0.00 | 70 | 1004.0 |
| 20260505041418 | 70 | 167 | 0.9 | 3.5 | 0.00 | 0.00 | 0.00 | 70 | 1004.0 |
| 20260505040903 | 70 | 167 | 0.9 | 4.3 | 0.00 | 0.00 | 0.00 | 70 | 1004.1 |
| 20260505040603 | 70 | 176 | 0.9 | 4.3 | 0.00 | 0.00 | 0.00 | 70 | 1004.1 |
| 20260505040303 | 70 | 182 | 0.9 | 7.0 | 0.00 | 0.00 | 0.00 | 70 | 1004.1 |
| 20260505040004 | 70 | 186 | 0.9 | 7.0 | 0.00 | 0.00 | 0.00 | 69 | 1004.3 |
| 20260505035703 | 70 | 185 | 1.7 | 7.0 | 0.00 | 0.00 | 0.00 | 69 | 1004.4 |
| 20260505035403 | 70 | 174 | 1.7 | 5.2 | 0.00 | 0.00 | 0.00 | 69 | 1004.4 |
| 20260505035318 | 70 | 173 | 1.7 | 5.2 | 0.00 | 0.00 | 0.00 | 69 | 1004.4 |
| 20260505034803 | 71 | 165 | 1.7 | 5.2 | 0.00 | 0.00 | 0.00 | 69 | 1004.3 |
| 20260505034504 | 71 | 171 | 1.7 | 6.1 | 0.00 | 0.00 | 0.00 | 69 | 1004.4 |
| 20260505034418 | 71 | 171 | 1.7 | 6.1 | 0.00 | 0.00 | 0.00 | 69 | 1004.4 |
| 20260505033903 | 71 | 178 | 1.7 | 7.0 | 0.00 | 0.00 | 0.00 | 69 | 1004.3 |
| 20260505033603 | 71 | 175 | 1.7 | 7.0 | 0.00 | 0.00 | 0.00 | 69 | 1004.2 |
| 20260505033303 | 71 | 172 | 1.7 | 6.1 | 0.00 | 0.00 | 0.00 | 69 | 1004.2 |
| 20260505033217 | 71 | 172 | 1.7 | 6.1 | 0.00 | 0.00 | 0.00 | 69 | 1004.2 |
| 20260505032704 | 71 | 164 | 1.7 | 6.1 | 0.00 | 0.00 | 0.00 | 69 | 1004.1 |
| 20260505032618 | 72 | 167 | 1.7 | 6.1 | 0.00 | 0.00 | 0.00 | 69 | 1004.1 |
| 20260505032103 | 72 | 165 | 1.7 | 6.1 | 0.00 | 0.00 | 0.00 | 69 | 1004.1 |
| 20260505031803 | 72 | 163 | 1.7 | 6.1 | 0.00 | 0.00 | 0.00 | 69 | 1004.1 |
| 20260505031503 | 72 | 159 | 1.7 | 7.0 | 0.00 | 0.00 | 0.00 | 69 | 1004.1 |
| 20260505031203 | 72 | 154 | 1.7 | 7.0 | 0.00 | 0.00 | 0.00 | 69 | 1004.0 |
| 20260505031117 | 72 | 154 | 1.7 | 7.0 | 0.00 | 0.00 | 0.00 | 69 | 1003.9 |
| 20260505030603 | 72 | 166 | 1.7 | 7.0 | 0.00 | 0.00 | 0.00 | 69 | 1004.0 |
| 20260505030304 | 72 | 161 | 1.7 | 7.0 | 0.00 | 0.00 | 0.00 | 69 | 1004.0 |
| 20260505030216 | 72 | 164 | 1.7 | 7.0 | 0.00 | 0.00 | 0.00 | 69 | 1004.0 |
| 20260505025703 | 72 | 151 | 1.7 | 6.1 | 0.00 | 0.00 | 0.00 | 69 | 1003.9 |
| 20260505025403 | 72 | 161 | 0.9 | 6.1 | 0.00 | 0.00 | 0.00 | 70 | 1003.9 |
| 20260505025104 | 72 | 161 | 1.7 | 6.1 | 0.00 | 0.00 | 0.00 | 70 | 1003.9 |
| 20260505024803 | 72 | 165 | 0.9 | 4.3 | 0.00 | 0.00 | 0.00 | 69 | 1003.9 |
| 20260505024503 | 72 | 163 | 0.9 | 4.3 | 0.00 | 0.00 | 0.00 | 69 | 1003.8 |
| 20260505024203 | 72 | 156 | 0.0 | 1.7 | 0.00 | 0.00 | 0.00 | 69 | 1003.8 |
| 20260505023903 | 73 | 157 | 0.0 | 2.6 | 0.00 | 0.00 | 0.00 | 69 | 1003.7 |
| 20260505023817 | 73 | 158 | 0.9 | 2.6 | 0.00 | 0.00 | 0.00 | 69 | 1003.7 |
| 20260505023517 | 73 | 162 | 0.9 | 2.6 | 0.00 | 0.00 | 0.00 | 68 | 1003.7 |
| 20260505023003 | 73 | 168 | 0.9 | 6.1 | 0.00 | 0.00 | 0.00 | 68 | 1003.6 |
| 20260505022703 | 73 | 169 | 0.9 | 6.1 | 0.00 | 0.00 | 0.00 | 68 | 1003.5 |
| 20260505022403 | 73 | 159 | 0.9 | 5.2 | 0.00 | 0.00 | 0.00 | 68 | 1003.4 |
| 20260505022103 | 73 | 155 | 0.9 | 5.2 | 0.00 | 0.00 | 0.00 | 67 | 1003.4 |
| 20260505021803 | 74 | 158 | 0.9 | 3.5 | 0.00 | 0.00 | 0.00 | 67 | 1003.4 |
| 20260505021503 | 74 | 160 | 0.9 | 4.3 | 0.00 | 0.00 | 0.00 | 67 | 1003.3 |
| 20260505021203 | 74 | 157 | 0.9 | 4.3 | 0.00 | 0.00 | 0.00 | 67 | 1003.3 |
| 20260505020904 | 74 | 157 | 0.9 | 4.3 | 0.00 | 0.00 | 0.00 | 66 | 1003.2 |
| 20260505020603 | 74 | 156 | 0.9 | 4.3 | 0.00 | 0.00 | 0.00 | 66 | 1003.2 |
| 20260505020303 | 74 | 163 | 0.9 | 4.3 | 0.00 | 0.00 | 0.00 | 66 | 1003.2 |
| 20260505020003 | 74 | 165 | 0.9 | 4.3 | 0.00 | 0.00 | 0.00 | 65 | 1003.2 |
| 20260505015918 | 74 | 166 | 0.9 | 4.3 | 0.00 | 0.00 | 0.00 | 65 | 1003.1 |
| 20260505015403 | 75 | 162 | 0.9 | 4.3 | 0.00 | 0.00 | 0.00 | 65 | 1003.0 |
| 20260505015103 | 75 | 168 | 1.7 | 5.2 | 0.00 | 0.00 | 0.00 | 65 | 1002.9 |
| 20260505014803 | 75 | 166 | 1.7 | 5.2 | 0.00 | 0.00 | 0.00 | 65 | 1002.9 |
| 20260505014717 | 75 | 168 | 1.7 | 5.2 | 0.00 | 0.00 | 0.00 | 65 | 1002.9 |
| 20260505014203 | 75 | 173 | 1.7 | 7.0 | 0.00 | 0.00 | 0.00 | 64 | 1002.8 |
| 20260505013903 | 75 | 178 | 1.7 | 7.0 | 0.00 | 0.00 | 0.00 | 64 | 1002.8 |
| 20260505013603 | 76 | 172 | 1.7 | 4.3 | 0.00 | 0.00 | 0.00 | 63 | 1002.6 |
| 20260505013518 | 76 | 170 | 1.7 | 4.3 | 0.00 | 0.00 | 0.00 | 63 | 1002.6 |
| 20260505013003 | 76 | 169 | 1.7 | 6.1 | 0.00 | 0.00 | 0.00 | 62 | 1002.6 |
| 20260505012703 | 76 | 169 | 1.7 | 6.1 | 0.00 | 0.00 | 0.00 | 62 | 1002.5 |
| 20260505012617 | 76 | 169 | 1.7 | 6.1 | 0.00 | 0.00 | 0.00 | 62 | 1002.5 |
| 20260505012317 | 76 | 171 | 1.7 | 6.1 | 0.00 | 0.00 | 0.00 | 61 | 1002.5 |
| 20260505011803 | 76 | 162 | 0.9 | 5.2 | 0.00 | 0.00 | 0.00 | 60 | 1002.3 |
| 20260505011504 | 77 | 165 | 0.9 | 3.5 | 0.00 | 0.00 | 0.00 | 59 | 1002.3 |
| 20260505011203 | 77 | 180 | 0.9 | 3.5 | 0.00 | 0.00 | 0.00 | 59 | 1002.3 |
| 20260505010903 | 77 | 185 | 0.9 | 4.3 | 0.00 | 0.00 | 0.00 | 59 | 1002.2 |
| 20260505010603 | 77 | 190 | 0.9 | 4.3 | 0.00 | 0.00 | 0.00 | 58 | 1002.2 |
| 20260505010303 | 77 | 187 | 0.9 | 4.3 | 0.00 | 0.00 | 0.00 | 58 | 1002.2 |
| 20260505010004 | 77 | 182 | 0.0 | 3.5 | 0.00 | 0.00 | 0.00 | 57 | 1002.1 |
| 20260505005703 | 78 | 182 | 0.0 | 3.5 | 0.00 | 0.00 | 0.00 | 58 | 1002.0 |
| 20260505005403 | 78 | 182 | 0.9 | 3.5 | 0.00 | 0.00 | 0.00 | 57 | 1001.9 |
| 20260505005103 | 78 | 191 | 0.9 | 5.2 | 0.00 | 0.00 | 0.00 | 56 | 1002.0 |
| 20260505004803 | 78 | 191 | 0.9 | 5.2 | 0.00 | 0.00 | 0.00 | 56 | 1002.0 |
| 20260505004503 | 78 | 190 | 1.7 | 5.2 | 0.00 | 0.00 | 0.00 | 56 | 1001.9 |
| 20260505004203 | 78 | 183 | 0.9 | 5.2 | 0.00 | 0.00 | 0.00 | 55 | 1001.8 |
| 20260505003903 | 79 | 184 | 0.9 | 5.2 | 0.00 | 0.00 | 0.00 | 55 | 1001.8 |
| 20260505003603 | 79 | 199 | 0.9 | 5.2 | 0.00 | 0.00 | 0.00 | 55 | 1001.9 |
| 20260505003518 | 79 | 201 | 0.9 | 5.2 | 0.00 | 0.00 | 0.00 | 55 | 1001.9 |
| 20260505003003 | 79 | 209 | 1.7 | 5.2 | 0.00 | 0.00 | 0.00 | 54 | 1001.9 |
| 20260505002917 | 79 | 208 | 1.7 | 5.2 | 0.00 | 0.00 | 0.00 | 54 | 1002.0 |
| 20260505002403 | 80 | 202 | 1.7 | 6.1 | 0.00 | 0.00 | 0.00 | 53 | 1002.0 |
| 20260505002103 | 80 | 194 | 1.7 | 6.1 | 0.00 | 0.00 | 0.00 | 53 | 1001.9 |
| 20260505001803 | 80 | 188 | 1.7 | 6.1 | 0.00 | 0.00 | 0.00 | 53 | 1001.9 |
| 20260505001716 | 80 | 184 | 1.7 | 6.1 | 0.00 | 0.00 | 0.00 | 52 | 1001.9 |
| 20260505001204 | 80 | 177 | 1.7 | 6.1 | 0.00 | 0.00 | 0.00 | 52 | 1002.0 |
| 20260505000903 | 81 | 177 | 0.9 | 6.1 | 0.00 | 0.00 | 0.00 | 51 | 1002.0 |
| 20260505000603 | 81 | 188 | 0.9 | 4.3 | 0.00 | 0.00 | 0.00 | 51 | 1001.8 |
| 20260505000303 | 81 | 195 | 1.7 | 6.1 | 0.00 | 0.00 | 0.00 | 51 | 1001.9 |
| 20260505000003 | 81 | 202 | 1.7 | 6.1 | 0.00 | 0.00 | 0.00 | 50 | 1002.0 |
| 20260504235703 | 82 | 201 | 1.7 | 6.1 | 0.00 | 0.00 | 0.00 | 50 | 1002.0 |
| 20260504235617 | 82 | 198 | 1.7 | 6.1 | 0.00 | 0.00 | 0.00 | 50 | 1002.0 |
| 20260504235317 | 82 | 199 | 1.7 | 7.0 | 0.00 | 0.00 | 0.00 | 49 | 1002.0 |
| 20260504234803 | 82 | 194 | 1.7 | 7.0 | 0.00 | 0.00 | 0.00 | 49 | 1002.1 |
| 20260504234504 | 82 | 204 | 2.6 | 7.0 | 0.00 | 0.00 | 0.00 | 48 | 1002.1 |
| 20260504234203 | 82 | 206 | 2.6 | 7.8 | 0.00 | 0.00 | 0.00 | 48 | 1002.1 |
| 20260504233904 | 82 | 210 | 2.6 | 7.8 | 0.00 | 0.00 | 0.00 | 48 | 1002.1 |
| 20260504233818 | 82 | 212 | 3.5 | 7.8 | 0.00 | 0.00 | 0.00 | 48 | 1002.1 |
| 20260504233303 | 83 | 208 | 2.6 | 10.4 | 0.00 | 0.00 | 0.00 | 47 | 1002.1 |
| 20260504233003 | 83 | 213 | 3.5 | 10.4 | 0.00 | 0.00 | 0.00 | 46 | 1002.0 |
| 20260504232917 | 83 | 212 | 3.5 | 10.4 | 0.00 | 0.00 | 0.00 | 46 | 1002.1 |
| 20260504232403 | 84 | 212 | 3.5 | 10.4 | 0.00 | 0.00 | 0.00 | 46 | 1002.1 |
| 20260504232103 | 84 | 209 | 2.6 | 7.0 | 0.00 | 0.00 | 0.00 | 46 | 1002.1 |
| 20260504231803 | 84 | 211 | 2.6 | 10.4 | 0.00 | 0.00 | 0.00 | 46 | 1002.1 |
| 20260504231503 | 84 | 212 | 2.6 | 10.4 | 0.00 | 0.00 | 0.00 | 46 | 1002.0 |
| 20260504231418 | 84 | 212 | 2.6 | 10.4 | 0.00 | 0.00 | 0.00 | 46 | 1002.1 |
| 20260504230904 | 85 | 202 | 1.7 | 6.1 | 0.00 | 0.00 | 0.00 | 46 | 1002.1 |
| 20260504230603 | 85 | 204 | 2.6 | 7.8 | 0.00 | 0.00 | 0.00 | 45 | 1002.1 |
| 20260504230303 | 85 | 206 | 2.6 | 7.8 | 0.00 | 0.00 | 0.00 | 45 | 1002.1 |
| 20260504230003 | 85 | 203 | 2.6 | 7.8 | 0.00 | 0.00 | 0.00 | 44 | 1002.1 |
| 20260504225703 | 85 | 204 | 2.6 | 7.0 | 0.00 | 0.00 | 0.00 | 45 | 1002.1 |
| 20260504225403 | 85 | 199 | 1.7 | 7.0 | 0.00 | 0.00 | 0.00 | 44 | 1002.1 |
| 20260504225103 | 85 | 201 | 2.6 | 8.7 | 0.00 | 0.00 | 0.00 | 45 | 1002.1 |
| 20260504224803 | 85 | 201 | 2.6 | 8.7 | 0.00 | 0.00 | 0.00 | 45 | 1002.0 |
| 20260504224718 | 85 | 199 | 2.6 | 8.7 | 0.00 | 0.00 | 0.00 | 45 | 1002.0 |
| 20260504224418 | 85 | 207 | 3.5 | 8.7 | 0.00 | 0.00 | 0.00 | 44 | 1002.0 |
| 20260504223904 | 85 | 207 | 3.5 | 10.4 | 0.00 | 0.00 | 0.00 | 44 | 1002.0 |
| 20260504223817 | 85 | 208 | 3.5 | 10.4 | 0.00 | 0.00 | 0.00 | 43 | 1002.0 |
| 20260504223303 | 85 | 207 | 4.3 | 13.0 | 0.00 | 0.00 | 0.00 | 43 | 1002.0 |
| 20260504223003 | 85 | 204 | 3.5 | 13.0 | 0.00 | 0.00 | 0.00 | 43 | 1002.0 |
| 20260504222703 | 85 | 200 | 2.6 | 13.0 | 0.00 | 0.00 | 0.00 | 43 | 1002.0 |
| 20260504222403 | 85 | 201 | 2.6 | 10.4 | 0.00 | 0.00 | 0.00 | 44 | 1001.8 |
| 20260504222318 | 85 | 200 | 3.5 | 10.4 | 0.00 | 0.00 | 0.00 | 45 | 1001.8 |
| 20260504221804 | 85 | 213 | 5.2 | 13.9 | 0.00 | 0.00 | 0.00 | 45 | 1001.9 |
| 20260504221503 | 85 | 214 | 6.1 | 13.9 | 0.00 | 0.00 | 0.00 | 44 | 1002.0 |
| 20260504221203 | 85 | 214 | 6.1 | 13.9 | 0.00 | 0.00 | 0.00 | 44 | 1001.9 |
| 20260504220903 | 86 | 210 | 4.3 | 11.3 | 0.00 | 0.00 | 0.00 | 43 | 1001.9 |
| 20260504220817 | 86 | 210 | 4.3 | 11.3 | 0.00 | 0.00 | 0.00 | 43 | 1001.9 |
| 20260504220303 | 87 | 195 | 2.6 | 11.3 | 0.00 | 0.00 | 0.00 | 42 | 1001.9 |
| 20260504220003 | 86 | 197 | 3.5 | 9.6 | 0.00 | 0.00 | 0.00 | 44 | 1002.0 |
| 20260504215919 | 86 | 201 | 3.5 | 11.3 | 0.00 | 0.00 | 0.00 | 44 | 1002.0 |
| 20260504215403 | 85 | 206 | 3.5 | 11.3 | 0.00 | 0.00 | 0.00 | 45 | 1001.9 |
| 20260504215318 | 85 | 207 | 4.3 | 11.3 | 0.00 | 0.00 | 0.00 | 44 | 1001.9 |
| 20260504214803 | 85 | 211 | 4.3 | 10.4 | 0.00 | 0.00 | 0.00 | 43 | 1002.1 |
| 20260504214503 | 85 | 212 | 4.3 | 11.3 | 0.00 | 0.00 | 0.00 | 44 | 1002.2 |
| 20260504214418 | 85 | 212 | 4.3 | 11.3 | 0.00 | 0.00 | 0.00 | 44 | 1002.2 |
| 20260504213904 | 85 | 212 | 4.3 | 11.3 | 0.00 | 0.00 | 0.00 | 43 | 1002.2 |
| 20260504213603 | 85 | 211 | 3.5 | 11.3 | 0.00 | 0.00 | 0.00 | 43 | 1002.3 |
| 20260504213304 | 86 | 209 | 2.6 | 11.3 | 0.00 | 0.00 | 0.00 | 42 | 1002.1 |
| 20260504213004 | 85 | 210 | 2.6 | 9.6 | 0.00 | 0.00 | 0.00 | 44 | 1002.2 |
| 20260504212703 | 85 | 211 | 3.5 | 9.6 | 0.00 | 0.00 | 0.00 | 44 | 1002.3 |
| 20260504212403 | 85 | 212 | 3.5 | 9.6 | 0.00 | 0.00 | 0.00 | 44 | 1002.3 |
| 20260504212103 | 84 | 213 | 4.3 | 9.6 | 0.00 | 0.00 | 0.00 | 44 | 1002.3 |
| 20260504211803 | 84 | 212 | 3.5 | 9.6 | 0.00 | 0.00 | 0.00 | 45 | 1002.2 |
| 20260504211503 | 85 | 211 | 3.5 | 9.6 | 0.00 | 0.00 | 0.00 | 45 | 1002.1 |
| 20260504211203 | 85 | 208 | 2.6 | 7.0 | 0.00 | 0.00 | 0.00 | 44 | 1002.2 |
| 20260504210903 | 85 | 208 | 3.5 | 8.7 | 0.00 | 0.00 | 0.00 | 44 | 1002.3 |
| 20260504210603 | 84 | 213 | 4.3 | 12.2 | 0.00 | 0.00 | 0.00 | 44 | 1002.4 |
| 20260504210303 | 84 | 213 | 4.3 | 15.6 | 0.00 | 0.00 | 0.00 | 43 | 1002.4 |
| 20260504210004 | 85 | 214 | 5.2 | 15.6 | 0.00 | 0.00 | 0.00 | 43 | 1002.5 |
| 20260504205703 | 85 | 213 | 5.2 | 15.6 | 0.00 | 0.00 | 0.00 | 41 | 1002.5 |
| 20260504205403 | 86 | 210 | 4.3 | 11.3 | 0.00 | 0.00 | 0.00 | 41 | 1002.5 |
| 20260504205103 | 86 | 209 | 3.5 | 11.3 | 0.00 | 0.00 | 0.00 | 42 | 1002.5 |
| 20260504204804 | 86 | 212 | 4.3 | 15.6 | 0.00 | 0.00 | 0.00 | 43 | 1002.5 |
| 20260504204503 | 85 | 214 | 5.2 | 15.6 | 0.00 | 0.00 | 0.00 | 43 | 1002.5 |
| 20260504204417 | 85 | 213 | 5.2 | 15.6 | 0.00 | 0.00 | 0.00 | 43 | 1002.5 |
| 20260504203903 | 85 | 212 | 5.2 | 12.2 | 0.00 | 0.00 | 0.00 | 42 | 1002.6 |
| 20260504203603 | 85 | 212 | 4.3 | 13.9 | 0.00 | 0.00 | 0.00 | 42 | 1002.7 |
| 20260504203303 | 85 | 211 | 3.5 | 13.9 | 0.00 | 0.00 | 0.00 | 41 | 1002.8 |
| 20260504203003 | 85 | 210 | 3.5 | 13.9 | 0.00 | 0.00 | 0.00 | 42 | 1002.9 |
| 20260504202703 | 85 | 211 | 3.5 | 13.9 | 0.00 | 0.00 | 0.00 | 42 | 1002.8 |
| 20260504202618 | 85 | 209 | 3.5 | 11.3 | 0.00 | 0.00 | 0.00 | 43 | 1002.8 |
| 20260504202103 | 84 | 214 | 3.5 | 11.3 | 0.00 | 0.00 | 0.00 | 42 | 1002.8 |
| 20260504201803 | 85 | 215 | 3.5 | 12.2 | 0.00 | 0.00 | 0.00 | 41 | 1002.9 |
| 20260504201503 | 85 | 213 | 3.5 | 12.2 | 0.00 | 0.00 | 0.00 | 41 | 1002.9 |
| 20260504201203 | 85 | 212 | 3.5 | 12.2 | 0.00 | 0.00 | 0.00 | 40 | 1002.9 |
| 20260504201117 | 86 | 212 | 3.5 | 12.2 | 0.00 | 0.00 | 0.00 | 40 | 1002.9 |
| 20260504200603 | 86 | 205 | 1.7 | 7.0 | 0.00 | 0.00 | 0.00 | 41 | 1002.9 |
| 20260504200519 | 86 | 204 | 2.6 | 8.7 | 0.00 | 0.00 | 0.00 | 42 | 1003.0 |
| 20260504200003 | 85 | 203 | 2.6 | 10.4 | 0.00 | 0.00 | 0.00 | 42 | 1003.0 |
| 20260504195918 | 85 | 205 | 2.6 | 10.4 | 0.00 | 0.00 | 0.00 | 43 | 1003.0 |
| 20260504195404 | 85 | 205 | 2.6 | 10.4 | 0.00 | 0.00 | 0.00 | 43 | 1003.1 |
| 20260504195103 | 84 | 209 | 2.6 | 11.3 | 0.00 | 0.00 | 0.00 | 42 | 1003.1 |
| 20260504194803 | 84 | 209 | 3.5 | 11.3 | 0.00 | 0.00 | 0.00 | 42 | 1003.2 |
| 20260504194503 | 84 | 212 | 3.5 | 11.3 | 0.00 | 0.00 | 0.00 | 41 | 1003.2 |
| 20260504194203 | 85 | 214 | 3.5 | 9.6 | 0.00 | 0.00 | 0.00 | 41 | 1003.3 |
| 20260504193903 | 85 | 215 | 4.3 | 10.4 | 0.00 | 0.00 | 0.00 | 41 | 1003.2 |
| 20260504193604 | 85 | 213 | 4.3 | 12.2 | 0.00 | 0.00 | 0.00 | 42 | 1003.2 |
| 20260504193304 | 85 | 213 | 4.3 | 12.2 | 0.00 | 0.00 | 0.00 | 41 | 1003.2 |
| 20260504193003 | 84 | 213 | 4.3 | 12.2 | 0.00 | 0.00 | 0.00 | 41 | 1003.3 |
| 20260504192703 | 84 | 212 | 4.3 | 11.3 | 0.00 | 0.00 | 0.00 | 41 | 1003.3 |
| 20260504192403 | 84 | 213 | 4.3 | 12.2 | 0.00 | 0.00 | 0.00 | 42 | 1003.4 |
| 20260504192103 | 83 | 214 | 5.2 | 12.2 | 0.00 | 0.00 | 0.00 | 43 | 1003.4 |
| 20260504191803 | 83 | 215 | 5.2 | 12.2 | 0.00 | 0.00 | 0.00 | 40 | 1003.4 |
| 20260504191503 | 83 | 217 | 6.1 | 13.0 | 0.00 | 0.00 | 0.00 | 40 | 1003.6 |
| 20260504191417 | 84 | 217 | 6.1 | 13.0 | 0.00 | 0.00 | 0.00 | 40 | 1003.5 |
| 20260504191118 | 84 | 213 | 5.2 | 13.0 | 0.00 | 0.00 | 0.00 | 41 | 1003.6 |
| 20260504190603 | 84 | 208 | 4.3 | 12.2 | 0.00 | 0.00 | 0.00 | 41 | 1003.6 |
| 20260504190303 | 84 | 201 | 3.5 | 10.4 | 0.00 | 0.00 | 0.00 | 42 | 1003.6 |
| 20260504190003 | 84 | 207 | 3.5 | 18.2 | 0.00 | 0.00 | 0.00 | 44 | 1003.5 |
| 20260504185704 | 83 | 210 | 5.2 | 18.2 | 0.00 | 0.00 | 0.00 | 45 | 1003.6 |
| 20260504185403 | 83 | 215 | 5.2 | 18.2 | 0.00 | 0.00 | 0.00 | 43 | 1003.6 |
| 20260504185103 | 83 | 216 | 5.2 | 12.2 | 0.00 | 0.00 | 0.00 | 42 | 1003.6 |
| 20260504184803 | 83 | 216 | 5.2 | 11.3 | 0.00 | 0.00 | 0.00 | 42 | 1003.7 |
| 20260504184503 | 83 | 212 | 5.2 | 11.3 | 0.00 | 0.00 | 0.00 | 42 | 1003.7 |
| 20260504184203 | 82 | 208 | 5.2 | 12.2 | 0.00 | 0.00 | 0.00 | 43 | 1003.7 |
| 20260504183903 | 83 | 211 | 5.2 | 12.2 | 0.00 | 0.00 | 0.00 | 42 | 1003.7 |
| 20260504183603 | 83 | 210 | 4.3 | 12.2 | 0.00 | 0.00 | 0.00 | 41 | 1003.7 |
| 20260504183304 | 83 | 213 | 3.5 | 12.2 | 0.00 | 0.00 | 0.00 | 43 | 1003.7 |
| 20260504183003 | 83 | 210 | 4.3 | 12.2 | 0.00 | 0.00 | 0.00 | 43 | 1003.7 |
| 20260504182703 | 82 | 214 | 4.3 | 12.2 | 0.00 | 0.00 | 0.00 | 43 | 1003.7 |
| 20260504182403 | 82 | 214 | 4.3 | 12.2 | 0.00 | 0.00 | 0.00 | 42 | 1003.8 |
| 20260504182104 | 82 | 216 | 4.3 | 10.4 | 0.00 | 0.00 | 0.00 | 43 | 1003.9 |
| 20260504181803 | 82 | 212 | 4.3 | 10.4 | 0.00 | 0.00 | 0.00 | 43 | 1003.9 |
| 20260504181504 | 81 | 214 | 4.3 | 10.4 | 0.00 | 0.00 | 0.00 | 43 | 1003.8 |
| 20260504181203 | 81 | 214 | 4.3 | 11.3 | 0.00 | 0.00 | 0.00 | 43 | 1003.8 |
| 20260504180903 | 81 | 217 | 5.2 | 13.9 | 0.00 | 0.00 | 0.00 | 44 | 1003.8 |
| 20260504180603 | 81 | 216 | 7.0 | 18.2 | 0.00 | 0.00 | 0.00 | 44 | 1003.8 |
| 20260504180303 | 80 | 219 | 7.0 | 18.2 | 0.00 | 0.00 | 0.00 | 43 | 1003.9 |
| 20260504180004 | 81 | 217 | 6.1 | 18.2 | 0.00 | 0.00 | 0.00 | 43 | 1003.9 |
| 20260504175703 | 82 | 221 | 5.2 | 14.8 | 0.00 | 0.00 | 0.00 | 44 | 1003.9 |
| 20260504175617 | 82 | 223 | 5.2 | 13.0 | 0.00 | 0.00 | 0.00 | 43 | 1004.0 |
| 20260504175103 | 81 | 218 | 5.2 | 14.8 | 0.00 | 0.00 | 0.00 | 44 | 1003.9 |
| 20260504174803 | 81 | 214 | 5.2 | 14.8 | 0.00 | 0.00 | 0.00 | 44 | 1004.0 |
| 20260504174503 | 81 | 214 | 5.2 | 14.8 | 0.00 | 0.00 | 0.00 | 44 | 1003.9 |
| 20260504174204 | 81 | 215 | 5.2 | 14.8 | 0.00 | 0.00 | 0.00 | 44 | 1004.1 |
| 20260504173903 | 81 | 211 | 5.2 | 13.0 | 0.00 | 0.00 | 0.00 | 44 | 1004.0 |
| 20260504173603 | 80 | 209 | 5.2 | 13.0 | 0.00 | 0.00 | 0.00 | 44 | 1004.1 |
| 20260504173304 | 80 | 212 | 6.1 | 15.6 | 0.00 | 0.00 | 0.00 | 44 | 1004.1 |
| 20260504173003 | 80 | 212 | 6.1 | 15.6 | 0.00 | 0.00 | 0.00 | 44 | 1004.1 |
| 20260504172704 | 80 | 213 | 5.2 | 15.6 | 0.00 | 0.00 | 0.00 | 44 | 1004.1 |
| 20260504172616 | 81 | 212 | 4.3 | 15.6 | 0.00 | 0.00 | 0.00 | 44 | 1004.1 |
| 20260504172103 | 81 | 209 | 3.5 | 11.3 | 0.00 | 0.00 | 0.00 | 45 | 1004.1 |
| 20260504171803 | 80 | 211 | 3.5 | 11.3 | 0.00 | 0.00 | 0.00 | 45 | 1004.2 |
| 20260504171503 | 80 | 212 | 3.5 | 11.3 | 0.00 | 0.00 | 0.00 | 45 | 1004.3 |
| 20260504171203 | 80 | 210 | 4.3 | 12.2 | 0.00 | 0.00 | 0.00 | 44 | 1004.1 |
| 20260504171117 | 80 | 211 | 5.2 | 14.8 | 0.00 | 0.00 | 0.00 | 44 | 1004.1 |
| 20260504170603 | 78 | 213 | 6.1 | 17.4 | 0.00 | 0.00 | 0.00 | 46 | 1004.3 |
| 20260504170303 | 78 | 215 | 6.1 | 17.4 | 0.00 | 0.00 | 0.00 | 45 | 1004.3 |
| 20260504160303 | 75 | 215 | 6.1 | 16.5 | 0.00 | 0.00 | 0.00 | 51 | 1004.3 |
| 20260504150903 | 71 | 208 | 4.3 | 12.2 | 0.00 | 0.00 | 0.00 | 54 | 1004.5 |
| 20260504150603 | 70 | 209 | 4.3 | 12.2 | 0.00 | 0.00 | 0.00 | 53 | 1004.7 |
| 20260504150304 | 70 | 207 | 3.5 | 11.3 | 0.00 | 0.00 | 0.00 | 55 | 1004.7 |
| 20260504141203 | 68 | 212 | 6.1 | 19.1 | 0.00 | 0.00 | 0.00 | 55 | 1004.5 |
| 20260504140903 | 68 | 210 | 6.1 | 19.1 | 0.00 | 0.00 | 0.00 | 54 | 1004.5 |
| 20260504140603 | 68 | 209 | 5.2 | 15.6 | 0.00 | 0.00 | 0.00 | 54 | 1004.5 |
| 20260504140303 | 69 | 209 | 4.3 | 14.8 | 0.00 | 0.00 | 0.00 | 54 | 1004.4 |
| 20260504130603 | 66 | 206 | 3.5 | 12.2 | 0.00 | 0.00 | 0.00 | 56 | 1004.6 |
| 20260504130304 | 66 | 207 | 3.5 | 12.2 | 0.00 | 0.00 | 0.00 | 56 | 1004.6 |
| 20260504120303 | 64 | 207 | 3.5 | 8.7 | 0.00 | 0.00 | 0.00 | 57 | 1004.4 |
| 20260504110603 | 65 | 193 | 4.3 | 11.3 | 0.00 | 0.00 | 0.00 | 55 | 1004.1 |
| 20260504110517 | 65 | 194 | 4.3 | 11.3 | 0.00 | 0.00 | 0.00 | 55 | 1004.1 |
| 20260504100603 | 66 | 199 | 4.3 | 13.0 | 0.00 | 0.00 | 0.00 | 52 | 1004.8 |
| 20260504100519 | 66 | 201 | 4.3 | 13.0 | 0.00 | 0.00 | 0.00 | 52 | 1004.8 |
| 20260504081803 | 69 | 210 | 5.2 | 14.8 | 0.00 | 0.00 | 0.00 | 47 | 1005.8 |
| 20260504081503 | 69 | 208 | 4.3 | 14.8 | 0.00 | 0.00 | 0.00 | 47 | 1005.9 |
| 20260504081416 | 69 | 209 | 4.3 | 14.8 | 0.00 | 0.00 | 0.00 | 47 | 1005.9 |
| 20260504080903 | 69 | 205 | 4.3 | 14.8 | 0.00 | 0.00 | 0.00 | 47 | 1006.0 |
| 20260504080603 | 69 | 207 | 4.3 | 14.8 | 0.00 | 0.00 | 0.00 | 47 | 1006.0 |
| 20260504080304 | 69 | 209 | 5.2 | 14.8 | 0.00 | 0.00 | 0.00 | 47 | 1006.1 |